Location: Cahas Mountain Overlook
(37.0833°N, 80.1000°W)
Time: 09:43:28
(UTC-05:00)

S-56A Canister/Altair - Pass Details

Date: 08 December 2023
Orbit: 640 x 2488 km, 38.9° (Epoch: 25 February)

Event Time Altitude Azimuth Distance (km) Brightness Sun altitude
Rises 16:53:29 0° 278° (W) 3,038 11.6 0.9°
Reaches altitude 10° 16:55:59 10° 263° (W) 2,234 11.4 0.4°
Maximum altitude 17:00:07 25° 209° (SSW) 1,683 10.2 -0.3°
Drops below altitude 10° 17:05:20 10° 157° (SSE) 2,893 10.6 -1.2°
Sets 17:09:06 0° 145° (SE) 4,177 11.2 -1.9°
